Notices

What's New in latest Release from April 7th, 2021:

- Updated Glossary, including Speed of Maximum Gust, and Total Hourly Precipitation

- Updated national and regional climate services offices contacts and prices information

- Addition of station inventory lists for 1981-2010, 1971-2000, and 1961-1990 Normals.

If you haven't already, please take our survey and provide feedback about our website: https://eccc.sondage-survey.ca/f/LanguageSelection.aspx?s=442ca660-fcf1-47c0-95a9-59707d6fd709

Hourly Data Report for November 15, 2019

PINAWA
MANITOBA
Current Station Operator: ECCC - MSC

50°10'38.020" N
96°03'53.000" W
268.00 m
503B1ER
71448
WEA

Download Data

Hourly Data (November 2019)
Hourly Data Report for November 15, 2019
TIME
LST
Temp Definition
°C
Dew Point Definition
°C
Rel Hum Definition
%
Precip. Amount Definition
mm

Wind Dir Definition
10's deg

Wind Spd Definition
km/h
Visibility Definition
km
Stn Press Definition
kPa
Hmdx Definition


Wind Chill Definition


Weather Definition


00:00 -9.9 LegendMM LegendMM 0.0 29 3   99.06   -12 LegendNANA
01:00 -9.9 LegendMM LegendMM 0.0 29 7   99.12   -14 LegendNANA
02:00 -10.3 LegendMM LegendMM 0.0 32 6   99.21   -14 LegendNANA
03:00 -10.4 LegendMM LegendMM 0.0 36 6   99.21   -14 LegendNANA
04:00 -10.2 LegendMM LegendMM 0.0 36 8   99.29   -15 LegendNANA
05:00 -10.5 LegendMM LegendMM 0.0 36 8   99.37   -15 LegendNANA
06:00 -10.8 LegendMM LegendMM 0.0 2 8   99.46   -15 LegendNANA
07:00 -11.0 LegendMM LegendMM 0.0 4 11   99.50   -17 LegendNANA
08:00 -11.2 LegendMM LegendMM 0.0 5 10   99.55   -17 LegendNANA
09:00 -11.1 LegendMM LegendMM 0.0 6 7   99.58   -15 LegendNANA
10:00 -10.5 LegendMM LegendMM 0.0 12 7   99.60   -15 LegendNANA
11:00 -9.5 LegendMM LegendMM 0.0 10 9   99.58   -14 LegendNANA
12:00 -8.4 LegendMM LegendMM 0.0 11 8   99.57   -13 LegendNANA
13:00 -7.5 LegendMM LegendMM 0.0 13 9   99.49   -12 LegendNANA
14:00 -6.5 LegendMM LegendMM 0.0 14 8   99.42   -10 LegendNANA
15:00 -5.6 LegendMM LegendMM 0.0 13 9   99.34   -10 LegendNANA
16:00 -5.8 LegendMM LegendMM 0.0 13 7   99.30   -9 LegendNANA
17:00 -5.6 LegendMM LegendMM 0.0 12 9   99.22   -10 LegendNANA
18:00 -5.6 LegendMM LegendMM 0.0 13 12   99.13   -11 LegendNANA
19:00 -5.3 LegendMM LegendMM 0.0 13 11   99.08   -10 LegendNANA
20:00 -5.1 LegendMM LegendMM 0.0 15 11   99.00   -10 LegendNANA
21:00 -4.7 LegendMM LegendMM 0.0 15 12   98.88   -9 LegendNANA
22:00 -4.2 LegendMM LegendMM 0.0 15 13   98.80   -9 LegendNANA
23:00 -3.7 LegendMM LegendMM 0.0 15 14   98.71   -9 LegendNANA

Notes on Data Quality.

Legend

  • E = Estimated
  • M = Missing
  • NA = Not Available*
  • [empty] = Indicates an unobserved value
Date modified: